Anchialos, Greece

5:36 AM EEST on October 17, 2017 (GMT +0300)
Almiros Air Base

Weather History for LGBL - March, 2013

Change the Weather History Date:

Saturday, March 16, 2013

  Actual Average Record
Temperature  
Mean Temperature 45 °F -  
Max Temperature 53 °F - - ()
Min Temperature 37 °F - - ()
Degree Days  
Heating Degree Days 20    
Moisture  
Dew Point 34 °F    
Average Humidity 62    
Maximum Humidity 81    
Minimum Humidity 44    
Precipitation  
Precipitation 0.00 in - - ()
Sea Level Pressure  
Sea Level Pressure 29.83 in    
Wind  
Wind Speed 7 mph ()    
Max Wind Speed 14 mph    
Max Gust Speed -    
Visibility 6.2 miles    
Events Rain    
T = Trace of Precipitation, MM = Missing Value Source: Averaged Metar Reports

Daily Weather History Graph

Daily Weather History Graph

Search for Another Location

Airport or City:

Trip Planner

Search our weather history database for the weather conditions in past years. The results will help you decide how hot, cold, wet, or windy it might be!

Date:

Astronomy

Mar. 16, 2013 Rise Set
Actual Time 6:38 AM EET 6:36 PM EET
Civil Twilight 6:11 AM EET 7:03 PM EET
Nautical Twilight 5:40 AM EET 7:34 PM EET
Astronomical Twilight 5:09 AM EET 8:06 PM EET
Moon 8:57 AM EET (3/16) 11:26 PM EET (3/16)
Length of Visible Light 12h 51m
Length of Day
11h 58m
Waxing Crescent, 21% of the Moon is Illuminated
Mar 16
Waxing Crescent
Mar 19
First Quarter
Mar 27
Full
Apr 3
Last Quarter
Apr 10
New

Hourly Weather History & Observations

Time (EET) Temp. Windchill Dew Point Humidity Pressure Visibility Wind Dir Wind Speed Gust Speed Precip Events Conditions
12:50 AM 44.6 °F 41.4 °F 33.8 °F 66% 29.59 in 6.2 mi WNW 5.8 mph - N/A   Scattered Clouds
1:50 AM 46.4 °F 43.5 °F 32.0 °F 57% 29.59 in 6.2 mi NW 5.8 mph - N/A   Scattered Clouds
2:50 AM 44.6 °F 42.2 °F 32.0 °F 61% 29.62 in 6.2 mi NW 4.6 mph - N/A   Scattered Clouds
3:50 AM 41.0 °F 35.8 °F 32.0 °F 70% 29.62 in 6.2 mi SW 8.1 mph - N/A   Scattered Clouds
4:50 AM 41.0 °F 35.8 °F 33.8 °F 76% 29.68 in 6.2 mi NW 8.1 mph - N/A   Scattered Clouds
5:50 AM 39.2 °F 34.2 °F 32.0 °F 75% 29.71 in 6.2 mi NW 6.9 mph - N/A   Scattered Clouds
6:20 AM 37.4 °F 32.1 °F 32.0 °F 81% 29.71 in 6.2 mi NW 6.9 mph - N/A   Scattered Clouds
6:50 AM 37.4 °F 32.1 °F 32.0 °F 81% 29.74 in 6.2 mi NNW 6.9 mph - N/A   Scattered Clouds
7:20 AM 37.4 °F 32.1 °F 32.0 °F 81% 29.74 in 6.2 mi NNW 6.9 mph - N/A   Scattered Clouds
7:50 AM 39.2 °F 34.2 °F 32.0 °F 75% 29.77 in 6.2 mi WNW 6.9 mph - N/A   Scattered Clouds
8:20 AM 42.8 °F 38.6 °F 32.0 °F 66% 29.77 in 6.2 mi NW 6.9 mph - N/A   Scattered Clouds
8:50 AM 44.6 °F 39.7 °F 32.0 °F 61% 29.80 in 6.2 mi NW 9.2 mph - N/A   Scattered Clouds
9:20 AM 46.4 °F 42.4 °F 32.0 °F 57% 29.80 in 6.2 mi NW 8.1 mph - N/A   Scattered Clouds
9:50 AM 46.4 °F 41.9 °F 32.0 °F 57% 29.80 in 6.2 mi NW 9.2 mph - N/A   Scattered Clouds
10:20 AM 46.4 °F 41.9 °F 32.0 °F 57% 29.83 in 6.2 mi NW 9.2 mph - N/A   Scattered Clouds
10:50 AM 48.2 °F - 33.8 °F 58% 29.83 in 6.2 mi NW 8.1 mph - N/A   Mostly Cloudy
11:20 AM 48.2 °F - 33.8 °F 58% 29.83 in 6.2 mi NNW 13.8 mph - N/A   Mostly Cloudy
11:50 AM 50.0 °F - 33.8 °F 54% 29.86 in 6.2 mi NW 12.7 mph - N/A   Scattered Clouds
12:20 PM 50.0 °F - 35.6 °F 58% 29.86 in 6.2 mi NNW 11.5 mph - N/A   Scattered Clouds
12:50 PM 51.8 °F - 33.8 °F 50% 29.86 in 6.2 mi North 9.2 mph - N/A   Scattered Clouds
1:20 PM 51.8 °F - 32.0 °F 47% 29.86 in 6.2 mi NNW 11.5 mph - N/A   Scattered Clouds
1:50 PM 51.8 °F - 32.0 °F 47% 29.86 in 6.2 mi NNW 11.5 mph - N/A   Scattered Clouds
2:20 PM 53.6 °F - 32.0 °F 44% 29.86 in 6.2 mi North 11.5 mph - N/A   Scattered Clouds
2:50 PM 51.8 °F - 32.0 °F 47% 29.86 in 6.2 mi North 10.4 mph - N/A   Scattered Clouds
3:20 PM 51.8 °F - 32.0 °F 47% 29.86 in 6.2 mi North 11.5 mph - N/A   Scattered Clouds
3:50 PM 51.8 °F - 32.0 °F 47% 29.86 in 6.2 mi NNW 9.2 mph - N/A   Scattered Clouds
4:20 PM 51.8 °F - 32.0 °F 47% 29.89 in 6.2 mi NNW 8.1 mph - N/A   Scattered Clouds
4:50 PM 50.0 °F - 32.0 °F 50% 29.89 in 6.2 mi NNW 6.9 mph - N/A   Scattered Clouds
5:20 PM 51.8 °F - 32.0 °F 47% 29.89 in 6.2 mi NNW 5.8 mph - N/A   Mostly Cloudy
5:50 PM 50.0 °F - 32.0 °F 50% 29.89 in 6.2 mi North 5.8 mph - N/A   Mostly Cloudy
6:20 PM 48.2 °F - 35.6 °F 62% 29.92 in 6.2 mi SSE 6.9 mph - N/A   Mostly Cloudy
6:50 PM 46.4 °F 42.9 °F 37.4 °F 71% 29.95 in 6.2 mi South 6.9 mph - N/A   Mostly Cloudy
7:20 PM 46.4 °F 43.5 °F 37.4 °F 71% 29.95 in 6.2 mi SSE 5.8 mph - N/A Rain Light Rain
7:50 PM 46.4 °F 44.3 °F 37.4 °F 71% 29.98 in 6.2 mi West 4.6 mph - N/A   Mostly Cloudy
8:50 PM 44.6 °F 41.4 °F 37.4 °F 76% 29.98 in 6.2 mi SW 5.8 mph - N/A Rain Light Rain
9:50 PM 44.6 °F 42.2 °F 37.4 °F 76% 30.01 in 6.2 mi WNW 4.6 mph - N/A   Mostly Cloudy
10:50 PM 44.6 °F 40.7 °F 37.4 °F 76% 30.04 in 6.2 mi West 6.9 mph - N/A   Mostly Cloudy
11:50 PM 44.6 °F 42.2 °F 39.2 °F 81% 30.04 in 6.2 mi West 4.6 mph - N/A   Mostly Cloudy